IGO2812 VOHS-VABB

Flight info

Callsign IGO2812
Flight time 1h 9m
Altitude 36000
Route TAMIV5 APUSU W18 OPAKA EMRAK2A
Aircraft A320/M-SDE3FGHIRWY/LB1

Departure

Time 2026-04-25 09:35
Airport Rajiv Gandhi International Airport (VOHS)

Arrival

Time 2026-04-25 10:44
Airport Chhatrapati Shivaji Maharaj International Airport (VABB)
Time Latitude Longitude Altitude Speed Heading
2026-04-25 08:33 17.23430 78.42811 1980 ft 0 kts 359°
2026-04-25 08:58 17.23434 78.42810 1980 ft 0 kts 359°
2026-04-25 09:01 17.23417 78.42828 1980 ft 0 kts
2026-04-25 09:05 17.23403 78.42827 1980 ft 4 kts 11°
2026-04-25 09:06 17.23380 78.42816 1980 ft 4 kts 56°
2026-04-25 09:06 17.23368 78.42794 1981 ft 4 kts 27°
2026-04-25 09:06 17.23351 78.42791 1982 ft 4 kts 17°
2026-04-25 09:06 17.23332 78.42776 1980 ft 4 kts 70°
2026-04-25 09:07 17.23327 78.42757 1984 ft 3 kts 89°
2026-04-25 09:07 17.23328 78.42785 1980 ft 4 kts 89°
2026-04-25 09:07 17.23329 78.42813 1982 ft 4 kts 90°
2026-04-25 09:07 17.23329 78.42821 1982 ft 0 kts 90°
2026-04-25 09:13 17.23329 78.42824 1982 ft 1 kts 90°
2026-04-25 09:13 17.23329 78.42854 1980 ft 6 kts 89°
2026-04-25 09:14 17.23329 78.42902 1981 ft 7 kts 89°
2026-04-25 09:14 17.23330 78.42955 1980 ft 7 kts 89°
2026-04-25 09:14 17.23331 78.42991 1981 ft 4 kts 89°
2026-04-25 09:14 17.23331 78.43022 1981 ft 5 kts 89°
2026-04-25 09:15 17.23332 78.43053 1980 ft 4 kts 89°
2026-04-25 09:15 17.23332 78.43069 1980 ft 0 kts 89°
2026-04-25 09:15 17.23332 78.43070 1980 ft 0 kts 89°
2026-04-25 09:16 17.23332 78.43075 1980 ft 1 kts 89°
2026-04-25 09:16 17.23332 78.43084 1980 ft 2 kts 89°
2026-04-25 09:16 17.23332 78.43104 1980 ft 4 kts 89°
2026-04-25 09:16 17.23332 78.43135 1980 ft 5 kts 96°
2026-04-25 09:17 17.23297 78.43161 1982 ft 0 kts 178°
2026-04-25 09:19 17.23296 78.43161 1982 ft 0 kts 178°
2026-04-25 09:20 17.23293 78.43161 1981 ft 2 kts 178°
2026-04-25 09:20 17.23274 78.43161 1980 ft 4 kts 181°
2026-04-25 09:20 17.23239 78.43161 1981 ft 6 kts 179°
2026-04-25 09:20 17.23202 78.43162 1980 ft 4 kts 179°
2026-04-25 09:21 17.23183 78.43162 1982 ft 0 kts 179°
2026-04-25 09:22 17.23179 78.43162 1982 ft 1 kts 179°
2026-04-25 09:22 17.23157 78.43162 1979 ft 5 kts 179°
2026-04-25 09:22 17.23118 78.43164 1981 ft 6 kts 168°
2026-04-25 09:22 17.23088 78.43205 1979 ft 10 kts 103°
2026-04-25 09:23 17.23087 78.43289 1979 ft 13 kts 90°
2026-04-25 09:23 17.23088 78.43392 1979 ft 15 kts 89°
2026-04-25 09:23 17.23089 78.43508 1979 ft 17 kts 89°
2026-04-25 09:23 17.23089 78.43637 1980 ft 19 kts 88°
2026-04-25 09:24 17.23094 78.43781 1980 ft 21 kts 88°
2026-04-25 09:24 17.23097 78.43939 1980 ft 23 kts 90°
2026-04-25 09:24 17.23099 78.44108 1981 ft 24 kts 90°
2026-04-25 09:24 17.23100 78.44289 1981 ft 26 kts 89°
2026-04-25 09:25 17.23103 78.44484 1981 ft 27 kts 89°
2026-04-25 09:25 17.23105 78.44685 1980 ft 25 kts 89°
2026-04-25 09:25 17.23108 78.44858 1979 ft 22 kts 89°
2026-04-25 09:25 17.23111 78.45026 1983 ft 24 kts 89°
2026-04-25 09:26 17.23112 78.45158 1983 ft 10 kts 88°
2026-04-25 09:26 17.23114 78.45220 1981 ft 4 kts 88°
2026-04-25 09:26 17.23114 78.45231 1981 ft 2 kts 88°
2026-04-25 09:26 17.23115 78.45250 1980 ft 4 kts 88°
2026-04-25 09:27 17.23115 78.45270 1980 ft 0 kts 89°
2026-04-25 09:29 17.23116 78.45277 1980 ft 2 kts 89°
2026-04-25 09:29 17.23116 78.45281 1980 ft 0 kts 89°
2026-04-25 09:29 17.23114 78.45292 1980 ft 3 kts 105°
2026-04-25 09:30 17.23093 78.45315 1980 ft 6 kts 153°
2026-04-25 09:30 17.23047 78.45318 1981 ft 7 kts 179°
2026-04-25 09:30 17.23031 78.45319 1980 ft 0 kts 179°
2026-04-25 09:31 17.23005 78.45316 1981 ft 5 kts 193°
2026-04-25 09:31 17.22973 78.45296 1983 ft 6 kts 216°
2026-04-25 09:32 17.22938 78.45268 1980 ft 7 kts 220°
2026-04-25 09:32 17.22913 78.45225 1982 ft 7 kts 251°
2026-04-25 09:32 17.22909 78.45203 1983 ft 0 kts 265°
2026-04-25 09:34 17.22909 78.45202 1982 ft 2 kts 265°
2026-04-25 09:34 17.22907 78.44995 1981 ft 63 kts 269°
2026-04-25 09:34 17.22898 78.44306 1980 ft 123 kts 269°
2026-04-25 09:34 17.22882 78.43249 1981 ft 166 kts 269°
2026-04-25 09:35 17.22868 78.41924 2185 ft 190 kts 269°
2026-04-25 09:35 17.22845 78.40521 2861 ft 194 kts 269°
2026-04-25 09:35 17.22828 78.39120 3551 ft 192 kts 268°
2026-04-25 09:35 17.22810 78.37684 4022 ft 205 kts 269°
2026-04-25 09:36 17.22789 78.36119 4160 ft 226 kts 269°
2026-04-25 09:36 17.22765 78.34384 4355 ft 251 kts 269°
2026-04-25 09:36 17.22755 78.33137 4534 ft 266 kts 272°
2026-04-25 09:36 17.23340 78.30514 5210 ft 284 kts 288°
2026-04-25 09:37 17.23928 78.28524 5958 ft 288 kts 288°
2026-04-25 09:37 17.24517 78.26508 6725 ft 291 kts 288°
2026-04-25 09:37 17.25103 78.24496 7472 ft 294 kts 287°
2026-04-25 09:37 17.25506 78.23112 8012 ft 295 kts 288°
2026-04-25 09:38 17.26104 78.21050 8801 ft 298 kts 288°
2026-04-25 09:38 17.26707 78.18966 9579 ft 300 kts 288°
2026-04-25 09:38 17.27320 78.16850 10121 ft 313 kts 288°
2026-04-25 09:38 17.28201 78.13827 10397 ft 342 kts 288°
2026-04-25 09:39 17.28676 78.12200 10693 ft 349 kts 288°
2026-04-25 09:39 17.29380 78.09783 11295 ft 354 kts 288°
2026-04-25 09:39 17.30102 78.07301 11958 ft 358 kts 288°
2026-04-25 09:40 17.31567 78.02254 13237 ft 367 kts 287°
2026-04-25 09:40 17.32310 77.99689 13746 ft 370 kts 287°
2026-04-25 09:40 17.33057 77.97108 13875 ft 371 kts 287°
2026-04-25 09:40 17.33805 77.94525 13914 ft 371 kts 287°
2026-04-25 09:41 17.34553 77.91942 13919 ft 371 kts 287°
2026-04-25 09:41 17.35300 77.89364 13913 ft 370 kts 287°
2026-04-25 09:41 17.36044 77.86781 13911 ft 371 kts 287°
2026-04-25 09:41 17.36787 77.84196 13914 ft 371 kts 287°
2026-04-25 09:42 17.37532 77.81612 13942 ft 372 kts 287°
2026-04-25 09:42 17.38284 77.79011 14529 ft 374 kts 287°
2026-04-25 09:42 17.39043 77.76399 15169 ft 376 kts 287°
2026-04-25 09:42 17.39801 77.73786 15826 ft 376 kts 287°
2026-04-25 09:43 17.40557 77.71168 16497 ft 376 kts 286°
2026-04-25 09:43 17.41312 77.68541 17151 ft 376 kts 286°
2026-04-25 09:43 17.42063 77.65923 17778 ft 377 kts 286°
2026-04-25 09:43 17.42820 77.63282 18350 ft 379 kts 286°
2026-04-25 09:44 17.43575 77.60625 18850 ft 382 kts 284°
2026-04-25 09:44 17.44077 77.57894 19348 ft 383 kts 276°
2026-04-25 09:44 17.44432 77.55119 19846 ft 386 kts 276°
2026-04-25 09:44 17.44790 77.52327 20352 ft 388 kts 276°
2026-04-25 09:45 17.45151 77.49516 20842 ft 390 kts 276°
2026-04-25 09:45 17.45507 77.46724 21331 ft 393 kts 275°
2026-04-25 09:45 17.45871 77.43843 21826 ft 395 kts 275°
2026-04-25 09:45 17.46234 77.40981 22300 ft 398 kts 275°
2026-04-25 09:46 17.46600 77.38102 22769 ft 400 kts 275°
2026-04-25 09:46 17.46964 77.35242 23229 ft 402 kts 274°
2026-04-25 09:46 17.47333 77.32332 23644 ft 404 kts 274°
2026-04-25 09:46 17.47705 77.29404 24027 ft 406 kts 274°
2026-04-25 09:47 17.48077 77.26471 24428 ft 407 kts 274°
2026-04-25 09:47 17.48451 77.23526 24834 ft 408 kts 274°
2026-04-25 09:47 17.48826 77.20571 25217 ft 410 kts 274°
2026-04-25 09:47 17.49199 77.17615 25649 ft 411 kts 274°
2026-04-25 09:48 17.49575 77.14638 26030 ft 412 kts 274°
2026-04-25 09:48 17.49950 77.11661 26420 ft 413 kts 274°
2026-04-25 09:48 17.50328 77.08676 26796 ft 415 kts 274°
2026-04-25 09:48 17.50708 77.05675 27179 ft 416 kts 274°
2026-04-25 09:49 17.51088 77.02667 27553 ft 417 kts 273°
2026-04-25 09:49 17.51470 76.99649 27930 ft 419 kts 273°
2026-04-25 09:49 17.51849 76.96625 28313 ft 420 kts 273°
2026-04-25 09:49 17.52227 76.93582 28705 ft 422 kts 273°
2026-04-25 09:50 17.52605 76.90530 29091 ft 423 kts 273°
2026-04-25 09:50 17.52986 76.87465 29465 ft 425 kts 273°
2026-04-25 09:50 17.53366 76.84390 29825 ft 427 kts 272°
2026-04-25 09:50 17.53748 76.81288 30151 ft 429 kts 272°
2026-04-25 09:51 17.54132 76.78186 30493 ft 429 kts 272°
2026-04-25 09:51 17.54532 76.75093 30930 ft 429 kts 275°
2026-04-25 09:51 17.55316 76.72063 31362 ft 435 kts 285°
2026-04-25 09:51 17.56666 76.69194 31787 ft 443 kts 296°
2026-04-25 09:52 17.58563 76.66605 32208 ft 453 kts 307°
2026-04-25 09:52 17.60955 76.64414 32630 ft 463 kts 318°
2026-04-25 09:52 17.63761 76.62701 33058 ft 470 kts 326°
2026-04-25 09:52 17.66660 76.61132 33501 ft 469 kts 326°
2026-04-25 09:53 17.69560 76.59559 33941 ft 468 kts 325°
2026-04-25 09:53 17.72449 76.57988 34324 ft 467 kts 325°
2026-04-25 09:53 17.75331 76.56421 34717 ft 466 kts 325°
2026-04-25 09:53 17.78202 76.54859 35121 ft 464 kts 325°
2026-04-25 09:54 17.81062 76.53302 35513 ft 462 kts 325°
2026-04-25 09:54 17.83915 76.51746 35819 ft 462 kts 325°
2026-04-25 09:54 17.89630 76.48618 35914 ft 465 kts 325°
2026-04-25 09:55 17.95343 76.45497 35913 ft 466 kts 325°
2026-04-25 09:55 18.01098 76.42353 35910 ft 466 kts 325°
2026-04-25 09:56 18.06887 76.39264 35915 ft 467 kts 326°
2026-04-25 09:56 18.12643 76.36116 35919 ft 459 kts 317°
2026-04-25 09:57 18.14995 76.33947 35923 ft 443 kts 302°
2026-04-25 09:57 18.16712 76.31333 35920 ft 429 kts 291°
2026-04-25 09:57 18.19562 76.25822 35917 ft 430 kts 291°
2026-04-25 09:58 18.22422 76.20290 35913 ft 430 kts 291°
2026-04-25 09:58 18.24176 76.16911 35915 ft 431 kts 291°
2026-04-25 09:59 18.27030 76.11399 35905 ft 428 kts 291°
2026-04-25 09:59 18.29879 76.05891 35901 ft 429 kts 291°
2026-04-25 10:00 18.32730 76.00371 35895 ft 430 kts 291°
2026-04-25 10:00 18.35576 75.94875 35913 ft 430 kts 291°
2026-04-25 10:01 18.38434 75.89348 35924 ft 430 kts 291°
2026-04-25 10:01 18.41201 75.83977 35927 ft 429 kts 291°
2026-04-25 10:02 18.44001 75.78489 35888 ft 422 kts 290°
2026-04-25 10:02 18.46773 75.73090 35868 ft 418 kts 291°
2026-04-25 10:03 18.49564 75.67691 35869 ft 421 kts 291°
2026-04-25 10:03 18.52333 75.62228 35869 ft 419 kts 285°
2026-04-25 10:04 18.54256 75.56473 35877 ft 416 kts 282°
2026-04-25 10:04 18.56128 75.50689 35876 ft 417 kts 282°
2026-04-25 10:05 18.58003 75.44889 35885 ft 418 kts 282°
2026-04-25 10:05 18.59865 75.39121 35888 ft 418 kts 282°
2026-04-25 10:06 18.61737 75.33312 35896 ft 418 kts 282°
2026-04-25 10:06 18.63611 75.27499 35735 ft 419 kts 282°
2026-04-25 10:07 18.64546 75.24598 35485 ft 418 kts 282°
2026-04-25 10:07 18.65480 75.21694 35266 ft 418 kts 282°
2026-04-25 10:07 18.66414 75.18795 35031 ft 418 kts 282°
2026-04-25 10:07 18.67350 75.15892 34796 ft 418 kts 282°
2026-04-25 10:08 18.68291 75.12990 34570 ft 418 kts 282°
2026-04-25 10:08 18.69238 75.10090 34344 ft 419 kts 282°
2026-04-25 10:08 18.70190 75.07187 34115 ft 419 kts 282°
2026-04-25 10:08 18.71146 75.04279 33893 ft 419 kts 282°
2026-04-25 10:09 18.72095 75.01372 33639 ft 419 kts 282°
2026-04-25 10:09 18.73039 74.98469 33385 ft 418 kts 282°
2026-04-25 10:09 18.73984 74.95569 33127 ft 417 kts 282°
2026-04-25 10:09 18.74928 74.92679 32879 ft 416 kts 282°
2026-04-25 10:10 18.75867 74.89803 32631 ft 414 kts 282°
2026-04-25 10:10 18.76800 74.86933 32388 ft 413 kts 282°
2026-04-25 10:10 18.77729 74.84072 32141 ft 411 kts 282°
2026-04-25 10:10 18.78650 74.81222 31902 ft 410 kts 282°
2026-04-25 10:11 18.79568 74.78377 31659 ft 409 kts 282°
2026-04-25 10:11 18.80484 74.75540 31421 ft 408 kts 282°
2026-04-25 10:11 18.81399 74.72715 31186 ft 406 kts 282°
2026-04-25 10:11 18.82315 74.69892 30954 ft 406 kts 283°
2026-04-25 10:12 18.83227 74.67080 30714 ft 404 kts 282°
2026-04-25 10:12 18.84135 74.64275 30479 ft 403 kts 283°
2026-04-25 10:12 18.85933 74.58714 30041 ft 402 kts 283°
2026-04-25 10:13 18.86833 74.55929 29788 ft 401 kts 283°
2026-04-25 10:13 18.87733 74.53140 29526 ft 401 kts 283°
2026-04-25 10:13 18.88631 74.50356 29255 ft 400 kts 283°
2026-04-25 10:13 18.89525 74.47577 28990 ft 400 kts 283°
2026-04-25 10:14 18.90417 74.44797 28728 ft 399 kts 284°
2026-04-25 10:14 18.91308 74.42022 28468 ft 399 kts 284°
2026-04-25 10:14 18.92198 74.39249 28216 ft 398 kts 284°
2026-04-25 10:14 18.93085 74.36486 27869 ft 395 kts 284°
2026-04-25 10:15 18.93967 74.33745 27349 ft 393 kts 285°
2026-04-25 10:15 18.94846 74.31014 26837 ft 392 kts 285°
2026-04-25 10:15 18.95720 74.28296 26328 ft 390 kts 285°
2026-04-25 10:15 18.96591 74.25577 25838 ft 389 kts 286°
2026-04-25 10:16 18.97457 74.22870 25354 ft 389 kts 286°
2026-04-25 10:16 18.98323 74.20164 24880 ft 389 kts 287°
2026-04-25 10:16 18.99188 74.17461 24403 ft 388 kts 287°
2026-04-25 10:16 19.00053 74.14758 23923 ft 388 kts 287°
2026-04-25 10:17 19.00915 74.12056 23430 ft 388 kts 287°
2026-04-25 10:17 19.01777 74.09357 22878 ft 387 kts 287°
2026-04-25 10:17 19.02636 74.06668 22378 ft 385 kts 288°
2026-04-25 10:17 19.03491 74.03992 21863 ft 384 kts 288°
2026-04-25 10:18 19.04342 74.01326 21341 ft 383 kts 288°
2026-04-25 10:18 19.05191 73.98664 20810 ft 382 kts 288°
2026-04-25 10:18 19.06038 73.96007 20273 ft 381 kts 288°
2026-04-25 10:18 19.06885 73.93349 19724 ft 381 kts 288°
2026-04-25 10:19 19.07726 73.90702 19180 ft 381 kts 288°
2026-04-25 10:19 19.08570 73.88044 18631 ft 381 kts 288°
2026-04-25 10:19 19.09413 73.85387 18056 ft 381 kts 289°
2026-04-25 10:19 19.10257 73.82728 17455 ft 381 kts 289°
2026-04-25 10:20 19.10891 73.80025 16896 ft 379 kts 277°
2026-04-25 10:20 19.11254 73.77288 16547 ft 371 kts 279°
2026-04-25 10:20 19.11677 73.74634 16336 ft 361 kts 280°
2026-04-25 10:20 19.12092 73.72033 15956 ft 356 kts 279°
2026-04-25 10:21 19.12496 73.69493 15543 ft 354 kts 280°
2026-04-25 10:21 19.12903 73.66930 15126 ft 352 kts 280°
2026-04-25 10:21 19.13311 73.64357 14718 ft 350 kts 280°
2026-04-25 10:21 19.13703 73.61874 14084 ft 346 kts 280°
2026-04-25 10:22 19.14098 73.59357 13659 ft 346 kts 280°
2026-04-25 10:22 19.14365 73.57666 13377 ft 344 kts 280°
2026-04-25 10:22 19.14881 73.54370 12843 ft 342 kts 280°
2026-04-25 10:22 19.15267 73.51898 12412 ft 341 kts 280°
2026-04-25 10:23 19.15652 73.49435 11978 ft 339 kts 279°
2026-04-25 10:23 19.16038 73.46976 11564 ft 338 kts 280°
2026-04-25 10:23 19.16423 73.44528 11147 ft 337 kts 280°
2026-04-25 10:23 19.16809 73.42082 10758 ft 336 kts 280°
2026-04-25 10:24 19.17195 73.39651 10391 ft 334 kts 280°
2026-04-25 10:24 19.17570 73.37236 10148 ft 329 kts 277°
2026-04-25 10:24 19.17451 73.34874 10029 ft 319 kts 253°
2026-04-25 10:24 19.16585 73.32759 9859 ft 311 kts 241°
2026-04-25 10:25 19.15564 73.30756 9607 ft 308 kts 240°
2026-04-25 10:25 19.14883 73.29444 9369 ft 307 kts 240°
2026-04-25 10:25 19.13513 73.26805 8982 ft 305 kts 240°
2026-04-25 10:25 19.12493 73.24847 8674 ft 303 kts 240°
2026-04-25 10:26 19.11819 73.23557 8484 ft 302 kts 240°
2026-04-25 10:26 19.10804 73.21620 8216 ft 300 kts 240°
2026-04-25 10:26 19.09791 73.19688 7950 ft 299 kts 240°
2026-04-25 10:26 19.08815 73.17754 7681 ft 298 kts 247°
2026-04-25 10:27 19.08556 73.15640 7542 ft 288 kts 281°
2026-04-25 10:27 19.09174 73.13710 7416 ft 268 kts 291°
2026-04-25 10:27 19.09414 73.11849 7301 ft 250 kts 263°
2026-04-25 10:27 19.09215 73.10077 7175 ft 234 kts 266°
2026-04-25 10:28 19.09153 73.08409 7017 ft 222 kts 269°
2026-04-25 10:28 19.09133 73.06748 6532 ft 230 kts 270°
2026-04-25 10:28 19.09113 73.05036 6091 ft 231 kts 270°
2026-04-25 10:28 19.09124 73.03391 5999 ft 216 kts 280°
2026-04-25 10:29 19.09694 73.02003 5833 ft 204 kts 316°
2026-04-25 10:29 19.10876 73.01271 5510 ft 196 kts 350°
2026-04-25 10:29 19.12227 73.01103 5126 ft 196 kts 358°
2026-04-25 10:29 19.13585 73.01057 4779 ft 194 kts 360°
2026-04-25 10:30 19.14917 73.01036 4463 ft 189 kts 360°
2026-04-25 10:30 19.16226 73.01026 4065 ft 187 kts
2026-04-25 10:30 19.17533 73.01024 4004 ft 188 kts
2026-04-25 10:30 19.18847 73.01024 4002 ft 189 kts 359°
2026-04-25 10:31 19.20166 73.01031 4008 ft 190 kts
2026-04-25 10:31 19.21448 73.01271 3992 ft 189 kts 27°
2026-04-25 10:31 19.22326 73.02299 4001 ft 196 kts 66°
2026-04-25 10:31 19.22521 73.03737 4014 ft 201 kts 87°
2026-04-25 10:32 19.22483 73.05212 4005 ft 201 kts 89°
2026-04-25 10:32 19.22416 73.06689 4005 ft 201 kts 89°
2026-04-25 10:32 19.22338 73.08168 4005 ft 201 kts 90°
2026-04-25 10:32 19.22261 73.09646 4006 ft 202 kts 90°
2026-04-25 10:33 19.22188 73.11124 4010 ft 201 kts 89°
2026-04-25 10:33 19.22114 73.12592 4004 ft 199 kts 90°
2026-04-25 10:33 19.22046 73.14060 4004 ft 199 kts 90°
2026-04-25 10:33 19.21975 73.15525 4006 ft 200 kts 90°
2026-04-25 10:34 19.21904 73.16990 4001 ft 200 kts 90°
2026-04-25 10:34 19.21837 73.18461 4001 ft 200 kts 90°
2026-04-25 10:34 19.21767 73.19936 4012 ft 201 kts 90°
2026-04-25 10:34 19.21701 73.21410 4005 ft 200 kts 90°
2026-04-25 10:35 19.21631 73.22883 4017 ft 202 kts 90°
2026-04-25 10:35 19.21379 73.24337 3992 ft 204 kts 115°
2026-04-25 10:35 19.20386 73.25410 4009 ft 209 kts 153°
2026-04-25 10:35 19.18978 73.25754 4017 ft 209 kts 176°
2026-04-25 10:36 19.17523 73.25824 4011 ft 210 kts 179°
2026-04-25 10:36 19.16058 73.25806 4013 ft 212 kts 191°
2026-04-25 10:36 19.14786 73.25129 4004 ft 205 kts 228°
2026-04-25 10:36 19.13922 73.23961 4016 ft 204 kts 238°
2026-04-25 10:37 19.13134 73.22698 4003 ft 203 kts 240°
2026-04-25 10:37 19.12368 73.21445 4009 ft 203 kts 240°
2026-04-25 10:37 19.11599 73.20181 4009 ft 204 kts 240°
2026-04-25 10:37 19.10842 73.18937 3838 ft 202 kts 239°
2026-04-25 10:38 19.10077 73.17678 3580 ft 207 kts 238°
2026-04-25 10:38 19.09390 73.16377 3307 ft 198 kts 256°
2026-04-25 10:38 19.09239 73.14969 3084 ft 190 kts 273°
2026-04-25 10:38 19.09222 73.13572 2929 ft 190 kts 273°
2026-04-25 10:39 19.09204 73.12168 2907 ft 192 kts 273°
2026-04-25 10:39 19.09186 73.10762 2901 ft 191 kts 274°
2026-04-25 10:39 19.09169 73.09355 2901 ft 192 kts 272°
2026-04-25 10:39 19.09151 73.07946 2910 ft 193 kts 273°
2026-04-25 10:40 19.09133 73.06523 2900 ft 194 kts 274°
2026-04-25 10:40 19.09115 73.05103 2897 ft 193 kts 274°
2026-04-25 10:40 19.09097 73.03679 2799 ft 193 kts 274°
2026-04-25 10:40 19.09078 73.02267 2584 ft 190 kts 274°
2026-04-25 10:41 19.09060 73.00875 2365 ft 187 kts 274°
2026-04-25 10:41 19.09042 72.99489 2129 ft 188 kts 274°
2026-04-25 10:41 19.09024 72.98111 1901 ft 186 kts 274°
2026-04-25 10:41 19.09005 72.96764 1678 ft 175 kts 273°
2026-04-25 10:42 19.08987 72.95543 1462 ft 159 kts 273°
2026-04-25 10:42 19.08972 72.94420 1270 ft 148 kts 274°
2026-04-25 10:42 19.08959 72.93371 1094 ft 140 kts 272°
2026-04-25 10:42 19.08946 72.92357 925 ft 137 kts 274°
2026-04-25 10:43 19.08933 72.91354 757 ft 135 kts 272°
2026-04-25 10:43 19.08920 72.90366 591 ft 134 kts 269°
2026-04-25 10:43 19.08900 72.89385 374 ft 133 kts 268°
2026-04-25 10:43 19.08887 72.88395 216 ft 134 kts 273°
2026-04-25 10:44 19.08877 72.87417 64 ft 129 kts 272°
2026-04-25 10:44 19.08870 72.86624 49 ft 84 kts 268°
2026-04-25 10:44 19.08864 72.86171 47 ft 48 kts 269°
2026-04-25 10:44 19.08905 72.85916 47 ft 31 kts 296°
2026-04-25 10:45 19.08966 72.85811 48 ft 10 kts 315°
2026-04-25 10:45 19.09014 72.85806 49 ft 4 kts 19°
2026-04-25 10:45 19.09018 72.85809 49 ft 1 kts 27°
2026-04-25 10:45 19.09028 72.85801 45 ft 3 kts 306°
2026-04-25 10:46 19.09030 72.85763 49 ft 7 kts 271°
2026-04-25 10:46 19.09030 72.85732 49 ft 1 kts 270°
2026-04-25 10:46 19.09030 72.85720 49 ft 2 kts 268°
2026-04-25 10:46 19.09029 72.85698 49 ft 2 kts 266°
2026-04-25 10:47 19.09028 72.85688 49 ft 0 kts 267°
2026-04-25 10:47 19.09028 72.85686 49 ft 0 kts 267°
2026-04-25 10:50 19.09028 72.85684 49 ft 1 kts 267°
2026-04-25 10:51 19.09027 72.85668 49 ft 3 kts 267°
2026-04-25 10:51 19.09027 72.85642 46 ft 4 kts 268°
2026-04-25 10:51 19.09040 72.85610 49 ft 6 kts 320°
2026-04-25 10:51 19.09082 72.85599 49 ft 7 kts 333°
2026-04-25 10:52 19.09093 72.85553 49 ft 7 kts 268°
2026-04-25 10:52 19.09092 72.85506 49 ft 6 kts 269°
2026-04-25 10:52 19.09092 72.85469 49 ft 3 kts 269°
2026-04-25 10:52 19.09110 72.85450 48 ft 5 kts 342°
2026-04-25 10:53 19.09135 72.85448 49 ft 1 kts 359°
2026-04-25 10:53 19.09145 72.85448 49 ft 2 kts 359°
2026-04-25 10:53 19.09157 72.85448 45 ft 2 kts 360°
2026-04-25 10:53 19.09158 72.85448 46 ft 0 kts 360°